Weather History for Clinton, MO

Change the Weather History Date:

Sunday, March 2, 2014

  Actual Average (KSZL) Record (KSZL)
Temperature  
Mean Temperature 12 °F -  
Max Temperature 19 °F 45 °F 73 °F (2008)
Min Temperature 5 °F 27 °F 2 °F (2014)
Degree Days  
Heating Degree Days 53    
Moisture  
Dew Point 3 °F    
Average Humidity 77    
Maximum Humidity 93    
Minimum Humidity 61    
Precipitation  
Precipitation 0.49 in - - ()
Sea Level Pressure  
Sea Level Pressure 30.40 in    
Wind  
Wind Speed 0 mph (North)    
Max Wind Speed 0 mph    
Max Gust Speed -    
Visibility 7 miles    
Events Rain , Snow    
Averages and records for this station are not official NWS values.
T = Trace of Precipitation, MM = Missing Value Source: NWS Daily Summary

Daily Weather History Graph

Daily Weather History Graph

Search for Another Location

Airport:

Trip Planner

Search our weather history database for the weather conditions in past years. The results will help you decide how hot, cold, wet, or windy it might be!

Date:

Astronomy

Mar. 02, 2014 Rise Set
Actual Time 6:45 AM CST 6:08 PM CST
Civil Twilight 6:18 AM CST 6:35 PM CST
Nautical Twilight 5:48 AM CST 7:06 PM CST
Astronomical Twilight 5:17 AM CST 7:36 PM CST
Moon 7:18 AM CST (3/2) 8:03 PM CST (3/2)
Length of Visible Light 12h 16m
Length of Day
11h 23m
Waxing Crescent, 3% of the Moon is Illuminated
Mar 2
Waxing Crescent
Mar 8
First Quarter
Mar 16
Full
Mar 23
Last Quarter
Mar 30
New

Hourly Weather History & Observations

Time (CST) Temp. Dew Point Humidity Pressure Visibility Wind Dir Wind Speed Gust Speed Precip Events Conditions
12:15 AM 19.4 °F 15.8 °F 86% 30.28 in 6.0 mi Calm Calm - N/A   Light Freezing Rain
12:35 AM 17.6 °F 15.8 °F 93% 30.28 in 3.0 mi Calm Calm - N/A Snow Light Snow
12:55 AM 17.6 °F 14.0 °F 86% 30.29 in 3.0 mi Calm Calm - 0.01 in Snow Light Snow
1:15 AM 17.6 °F 12.2 °F 79% 30.30 in 4.0 mi Calm Calm - N/A Snow Light Snow
1:35 AM 15.8 °F 12.2 °F 86% 30.32 in 2.5 mi Calm Calm - 0.11 in Rain Light Freezing Rain
1:55 AM 14.0 °F 12.2 °F 93% 30.31 in 1.5 mi Calm Calm - 0.21 in Rain Light Freezing Rain
2:15 AM 14.0 °F 10.4 °F 86% 30.32 in 2.5 mi Calm Calm - 0.02 in Snow Light Snow
2:35 AM 14.0 °F 10.4 °F 86% 30.30 in 2.5 mi Calm Calm - 0.05 in Rain Light Freezing Rain
2:55 AM 12.2 °F 8.6 °F 85% 30.29 in 4.0 mi Calm Calm - 0.06 in Snow Light Snow
3:15 AM 12.2 °F 10.4 °F 92% 30.32 in 8.0 mi Calm Calm - N/A Rain Light Freezing Rain
3:35 AM 12.2 °F 8.6 °F 85% 30.29 in 4.0 mi Calm Calm - 0.01 in Snow Light Snow
3:55 AM 12.2 °F 8.6 °F 85% 30.29 in 5.0 mi Calm Calm - 0.01 in Snow Light Snow
4:15 AM 12.2 °F 8.6 °F 85% 30.33 in 7.0 mi Calm Calm - N/A Rain Light Freezing Rain
4:35 AM 10.4 °F 5.0 °F 79% 30.36 in 9.0 mi Calm Calm - N/A   Light Freezing Rain
4:55 AM 10.4 °F 5.0 °F 79% 30.37 in 10.0 mi Calm Calm - N/A   Light Freezing Rain
5:15 AM 10.4 °F 3.2 °F 73% 30.36 in 8.0 mi Calm Calm - N/A   Light Freezing Rain
5:35 AM 10.4 °F 5.0 °F 79% 30.38 in 6.0 mi Calm Calm - N/A Rain Light Freezing Rain
5:55 AM 8.6 °F 5.0 °F 85% 30.35 in 2.5 mi Calm Calm - 0.03 in Rain Light Freezing Rain
6:15 AM 8.6 °F 3.2 °F 79% 30.38 in 3.0 mi Calm Calm - 0.04 in Rain Light Freezing Rain
6:35 AM 8.6 °F 3.2 °F 79% 30.39 in 2.5 mi Calm Calm - 0.05 in Snow Light Snow
6:55 AM 8.6 °F 3.2 °F 79% 30.40 in 3.0 mi Calm Calm - 0.07 in Rain Light Freezing Rain
7:15 AM 8.6 °F 3.2 °F 79% 30.41 in 5.0 mi Calm Calm - N/A Rain Light Freezing Rain
7:35 AM 8.6 °F 3.2 °F 79% 30.41 in 4.0 mi Calm Calm - 0.01 in Rain Light Freezing Rain
7:55 AM 8.6 °F 3.2 °F 79% 30.41 in 2.5 mi Calm Calm - 0.07 in Rain Light Freezing Rain
8:15 AM 8.6 °F 5.0 °F 85% 30.43 in 3.0 mi Calm Calm - 0.01 in Rain Light Freezing Rain
8:35 AM 8.6 °F 3.2 °F 79% 30.45 in 5.0 mi Calm Calm - 0.01 in Rain Light Freezing Rain
8:55 AM 8.6 °F 3.2 °F 79% 30.46 in 6.0 mi Calm Calm - 0.01 in   Light Freezing Rain
9:15 AM 10.4 °F 5.0 °F 79% 30.45 in 5.0 mi Calm Calm - N/A Rain Light Freezing Rain
9:35 AM 8.6 °F 3.2 °F 79% 30.45 in 4.0 mi Calm Calm - 0.01 in Rain Light Freezing Rain
9:55 AM 10.4 °F 5.0 °F 79% 30.45 in 4.0 mi Calm Calm - 0.01 in Rain Light Freezing Rain
10:15 AM 10.4 °F 5.0 °F 79% 30.44 in 5.0 mi Calm Calm - N/A Rain Light Freezing Rain
10:35 AM 10.4 °F 5.0 °F 79% 30.41 in 4.0 mi Calm Calm - 0.01 in   Light Freezing Rain
10:55 AM 10.4 °F 5.0 °F 79% 30.43 in 5.0 mi Calm Calm - 0.01 in   Haze
11:15 AM 10.4 °F 5.0 °F 79% 30.44 in 5.0 mi Calm Calm - N/A   Light Freezing Rain
11:35 AM 10.4 °F 3.2 °F 73% 30.45 in 7.0 mi Calm Calm - N/A   Light Freezing Rain
11:55 AM 10.4 °F 5.0 °F 79% 30.45 in 10.0 mi Calm Calm - N/A   Overcast
12:15 PM 10.4 °F 5.0 °F 79% 30.45 in 8.0 mi Calm Calm - N/A   Overcast
12:35 PM 10.4 °F 3.2 °F 73% 30.46 in 10.0 mi Calm Calm - N/A   Overcast
12:55 PM 10.4 °F 3.2 °F 73% 30.44 in 10.0 mi Calm Calm - N/A   Overcast
1:15 PM 10.4 °F 3.2 °F 73% 30.44 in 10.0 mi Calm Calm - N/A   Overcast
1:35 PM 8.6 °F 3.2 °F 79% 30.43 in 10.0 mi Calm Calm - N/A   Overcast
1:55 PM 8.6 °F 1.4 °F 73% 30.42 in 10.0 mi Calm Calm - N/A   Overcast
2:15 PM 8.6 °F 3.2 °F 79% 30.42 in 10.0 mi Calm Calm - N/A   Overcast
2:35 PM 10.4 °F 3.2 °F 73% 30.42 in 10.0 mi Calm Calm - N/A   Overcast
2:55 PM 8.6 °F 3.2 °F 79% 30.41 in 5.0 mi Calm Calm - N/A   Light Freezing Rain
3:15 PM 8.6 °F 3.2 °F 79% 30.41 in 9.0 mi Calm Calm - N/A   Overcast
3:35 PM 8.6 °F 3.2 °F 79% 30.40 in 10.0 mi Calm Calm - N/A   Light Freezing Rain
3:55 PM 8.6 °F 3.2 °F 79% 30.42 in 8.0 mi Calm Calm - N/A Rain Light Freezing Rain
4:15 PM 8.6 °F 1.4 °F 73% 30.42 in 5.0 mi Calm Calm - N/A   Haze
4:35 PM 6.8 °F 1.4 °F 79% 30.41 in 7.0 mi Calm Calm - N/A   Overcast
4:55 PM 6.8 °F 1.4 °F 79% 30.41 in 10.0 mi Calm Calm - N/A   Overcast
5:15 PM 5.0 °F -0.4 °F 78% 30.41 in 7.0 mi Calm Calm - N/A   Light Freezing Rain
5:35 PM 6.8 °F 1.4 °F 79% 30.43 in 7.0 mi Calm Calm - N/A   Mostly Cloudy
5:55 PM 5.0 °F -0.4 °F 78% 30.43 in 10.0 mi Calm Calm - N/A   Overcast
6:15 PM 5.0 °F -0.4 °F 78% 30.46 in 10.0 mi Calm Calm - N/A   Overcast
6:35 PM 6.8 °F -0.4 °F 72% 30.44 in 10.0 mi Calm Calm - N/A   Overcast
6:55 PM 6.8 °F -0.4 °F 72% 30.41 in 10.0 mi Calm Calm - N/A   Mostly Cloudy
7:15 PM 6.8 °F -2.2 °F 67% 30.43 in 10.0 mi Calm Calm - N/A   Overcast
7:35 PM 6.8 °F -2.2 °F 67% 30.43 in 10.0 mi Calm Calm - N/A   Overcast
7:55 PM 6.8 °F -2.2 °F 67% 30.45 in 10.0 mi Calm Calm - N/A   Overcast
8:15 PM 6.8 °F -4.0 °F 61% 30.42 in 10.0 mi Calm Calm - N/A   Overcast
8:35 PM 8.6 °F -2.2 °F 62% 30.46 in 10.0 mi Calm Calm - N/A   Scattered Clouds
8:55 PM 6.8 °F -2.2 °F 67% 30.45 in 10.0 mi Calm Calm - N/A   Clear
9:15 PM 6.8 °F -2.2 °F 67% 30.46 in 10.0 mi Calm Calm - N/A   Clear
9:35 PM 6.8 °F -4.0 °F 61% 30.45 in 10.0 mi Calm Calm - N/A   Clear
9:55 PM 6.8 °F -4.0 °F 61% 30.45 in 10.0 mi Calm Calm - N/A   Clear
10:15 PM 6.8 °F -2.2 °F 67% 30.44 in 10.0 mi Calm Calm - N/A   Clear
10:35 PM 6.8 °F -4.0 °F 61% 30.44 in 10.0 mi Calm Calm - N/A   Clear
10:55 PM 6.8 °F -4.0 °F 61% 30.45 in 10.0 mi Calm Calm - N/A   Scattered Clouds
11:55 PM 5.0 °F -5.8 °F 61% 30.46 in 10.0 mi Calm Calm - N/A   Clear